Location: Newark
(48.2308°N, 120.8549°W)
Time: 17:28:18
(UTC+00:00)

Vanguard 3 - All Passes

Search period start: 06 June 2020 00:00
Search period end: 16 June 2020 00:00
Orbit: 509 x 3261 km, 33.3° (Epoch: 05 June)

Date Brightness Start Highest point End Pass type
(mag) Time Alt. Az. Time Alt. Az. Time Alt. Az.
06 Jun - 07:36:19 10° SSW 07:51:10 28° SSE 08:03:53 10° E visible
06 Jun - 09:48:00 10° SW 10:05:08 42° S 10:17:24 10° ESE visible
06 Jun - 12:03:24 10° WSW 12:18:42 41° SSW 12:28:26 10° SE daylight
06 Jun - 14:20:43 10° W 14:30:20 24° SW 14:36:58 10° SSE daylight
07 Jun - 06:23:46 10° S 06:35:47 20° SE 06:47:06 10° ESE visible
07 Jun - 08:32:28 10° SW 08:49:24 37° SSE 09:02:57 10° E visible
07 Jun - 10:46:27 10° WSW 11:03:32 45° S 11:15:05 10° ESE visible
07 Jun - 13:02:57 10° W 13:16:23 34° SSW 13:25:04 10° SE daylight
07 Jun - 15:22:43 10° WSW 15:26:54 13° SW 15:30:26 10° SSW daylight
08 Jun - 05:15:19 10° SSE 05:20:49 12° SE 05:26:18 10° ESE visible
08 Jun - 07:18:03 10° SSW 07:33:40 31° SSE 07:47:36 10° E visible
08 Jun - 09:30:04 10° SW 09:47:53 44° S 10:01:09 10° ESE visible
08 Jun - 11:45:34 10° WSW 12:01:42 42° SSW 12:12:18 10° SE daylight
08 Jun - 14:03:11 10° W 14:13:30 23° SW 14:20:43 10° S daylight
09 Jun - 06:05:13 10° S 06:18:12 23° SE 06:30:56 10° E visible
09 Jun - 08:14:32 10° SW 08:31:58 40° SSE 08:46:32 10° E visible
09 Jun - 10:28:37 10° WSW 10:46:22 46° S 10:58:51 10° ESE visible
09 Jun - 12:45:13 10° W 12:59:25 34° SSW 13:08:51 10° SSE daylight
09 Jun - 15:05:46 10° WSW 15:10:00 12° SW 15:13:38 10° SSW daylight
10 Jun - 04:55:13 10° SSE 05:03:14 14° SE 05:11:28 10° ESE visible
10 Jun - 07:00:06 10° SSW 07:16:06 34° SSE 07:31:05 10° E visible
10 Jun - 09:12:17 10° WSW 09:30:31 47° S 09:44:46 10° ESE visible
10 Jun - 11:27:47 10° WSW 11:44:35 43° SSW 11:56:02 10° SE daylight
10 Jun - 13:45:39 10° W 13:56:31 23° SW 14:04:18 10° S daylight
11 Jun - 05:47:05 10° S 06:00:35 25° SE 06:14:25 10° E visible
11 Jun - 07:56:50 10° SW 08:14:26 43° SSE 08:29:59 10° E visible
11 Jun - 10:10:53 10° WSW 10:29:04 48° S 10:42:29 10° ESE visible
11 Jun - 12:27:31 10° W 12:42:19 34° SSW 12:52:30 10° SSE daylight
11 Jun - 14:48:57 10° WSW 14:52:59 12° SW 14:56:32 10° SW daylight
12 Jun - 04:36:19 10° SSE 04:45:38 16° SE 04:55:34 10° ESE visible
12 Jun - 06:42:25 10° SSW 06:58:28 36° SSE 07:14:22 10° E visible
12 Jun - 08:54:41 10° WSW 09:13:02 48° S 09:28:14 10° ESE visible
12 Jun - 11:10:05 10° W 11:27:20 43° SSW 11:39:40 10° SE visible
12 Jun - 13:28:09 10° W 13:39:24 22° SW 13:47:43 10° S daylight
13 Jun - 05:29:17 10° SSW 05:42:55 28° SE 05:57:39 10° E visible
13 Jun - 07:39:20 10° SW 07:56:50 45° SSE 08:13:15 10° E visible
13 Jun - 09:53:17 10° WSW 10:11:40 48° S 10:25:59 10° ESE visible
13 Jun - 12:09:51 10° W 12:25:05 33° SSW 12:36:01 10° SSE daylight
13 Jun - 14:32:29 10° WSW 14:35:52 11° SW 14:38:55 10° SW daylight
14 Jun - 04:18:03 10° S 04:28:00 18° SE 04:39:06 10° E daylight
14 Jun - 06:24:58 10° SW 06:40:48 39° SSE 06:57:28 10° E visible
14 Jun - 08:37:13 10° WSW 08:55:30 49° S 09:11:34 10° ESE visible
14 Jun - 10:52:27 10° W 11:09:58 42° SSW 11:23:07 10° SE visible
14 Jun - 13:10:42 10° W 13:22:10 22° SW 13:30:56 10° S daylight
15 Jun - 05:11:48 10° SSW 05:25:16 30° SE 05:40:40 10° E visible
15 Jun - 07:22:00 10° SW 07:39:12 47° SSE 07:56:23 10° ESE visible
15 Jun - 09:35:49 10° WSW 09:54:10 48° S 10:09:20 10° ESE visible
15 Jun - 11:52:17 10° W 12:07:43 32° SSW 12:19:20 10° SSE daylight
15 Jun - 14:17:03 10° WSW 14:18:36 10° SW 14:20:06 10° SW daylight
